EW6456 Weather Reports


Display with metric or nautical units.
time (UTC)temp
F
wind
direction
speed
MPH
gust
MPH
rain 1hr
in
rain 24hr
in
rain mn
in
humidity
%
barometer
mb
20260510110012 41 65 0.0 0.0 0.00 0.06 0.00 89 1018.5
20260510104520 42 200 0.0 0.0 0.00 0.06 0.00 90 1018.6
20260510103010 42 184 0.0 0.0 0.00 0.06 0.00 89 1018.6
20260510101505 42 176 0.0 0.0 0.00 0.06 0.00 89 1018.7
20260510100003 42 69 0.0 0.0 0.00 0.06 0.00 89 1018.7
20260510094540 42 155 0.0 0.0 0.00 0.06 0.00 89 1018.6
20260510093030 43 164 0.0 0.0 0.00 0.06 0.00 88 1018.6
20260510091527 43 92 0.0 0.0 0.00 0.06 0.00 87 1018.7
20260510090025 45 149 0.0 0.0 0.00 0.06 0.00 85 1018.6
20260510084524 45 212 0.0 0.0 0.00 0.06 0.00 85 1018.6
20260510083023 45 321 0.0 0.0 0.00 0.06 0.00 86 1018.5
20260510081533 44 294 0.0 0.0 0.00 0.06 0.00 86 1018.4
20260510080017 43 256 0.0 0.0 0.00 0.06 0.00 88 1018.3
20260510074516 43 271 0.0 0.0 0.00 0.06 0.00 89 1018.2
20260510073015 43 321 0.0 0.0 0.00 0.06 0.00 87 1018.2
20260510071506 44 100 0.0 0.0 0.00 0.06 0.00 86 1018.2
20260510070006 45 247 0.0 0.0 0.00 0.06 0.00 87 1018.2
20260510064504 44 147 0.0 0.0 0.00 0.06 0.00 87 1018.1
20260510063002 44 219 0.0 0.0 0.00 0.06 0.00 86 1018.0
20260510061603 45 281 0.0 0.0 0.00 0.06 0.00 85 1017.8
20260510060054 45 325 0.0 0.0 0.00 0.06 0.00 84 1017.7
20260510054559 46 200 0.0 0.0 0.00 0.06 0.00 82 1017.7
20260510053047 49 276 0.0 0.0 0.00 0.06 0.00 77 1017.6
20260510051538 50 270 0.0 0.0 0.00 0.06 0.00 75 1017.7
20260510050035 51 299 0.0 0.0 0.00 0.06 0.00 72 1017.5
20260510044539 52 8 0.0 0.0 0.00 0.06 0.00 72 1017.5
20260510043031 53 53 0.0 0.0 0.00 0.06 0.00 70 1017.6
20260510041524 54 76 0.0 0.0 0.00 0.06 0.00 68 1017.5
20260510040024 54 2 0.0 0.0 0.00 0.06 0.00 68 1017.3
20260510034520 53 150 0.0 0.0 0.00 0.06 0.00 68 1017.3
20260510033017 54 15 0.0 0.0 0.00 0.06 0.00 67 1017.1
20260510031552 57 267 0.0 0.0 0.00 0.06 0.06 62 1016.8
20260510030041 58 117 0.0 0.0 0.00 0.06 0.06 56 1016.5
20260510024548 58 240 0.0 0.0 0.00 0.06 0.06 55 1016.5
20260510023037 59 7 0.0 0.0 0.00 0.06 0.06 54 1016.5
20260510021534 59 331 0.0 2.0 0.00 0.06 0.06 54 1016.3
20260510020033 59 345 0.0 1.0 0.00 0.06 0.06 54 1016.1
20260510014531 60 22 0.0 0.0 0.00 0.06 0.06 53 1016.0
20260510013028 61 75 0.0 0.0 0.00 0.06 0.06 51 1015.8
20260510011629 61 224 0.0 5.0 0.00 0.06 0.06 50 1015.7
20260510010026 63 319 0.0 9.0 0.00 0.06 0.06 48 1015.6
20260510004522 64 31 0.0 1.0 0.00 0.06 0.06 43 1015.5
20260510003021 66 294 0.0 6.0 0.00 0.06 0.06 39 1015.3
20260510001518 66 274 0.0 0.0 0.00 0.06 0.06 39 1015.2
20260510000020 66 14 0.0 6.0 0.00 0.06 0.06 40 1015.1
20260509234617 65 122 0.0 0.0 0.00 0.06 0.06 41 1015.0
20260509233049 66 103 0.0 7.0 0.00 0.06 0.06 42 1015.0
20260509231547 66 248 0.0 0.0 0.00 0.06 0.06 44 1015.0
20260509230040 64 182 0.0 1.0 0.00 0.06 0.06 45 1015.0
20260509224540 64 0.0 2.0 0.00 0.06 0.06 45 1014.9
20260509223044 65 131 0.0 0.0 0.00 0.06 0.06 44 1014.9
20260509221541 63 169 0.0 0.0 0.00 0.06 0.06 47 1015.0
20260509220030 62 121 0.0 0.0 0.00 0.06 0.06 53 1015.1
20260509214528 60 47 0.0 7.0 0.00 0.06 0.06 57 1015.2
20260509213027 62 231 0.0 6.0 0.00 0.06 0.06 55 1015.1
20260509211527 61 25 2.0 13.0 0.00 0.06 0.06 57 1015.0
20260509210106 62 309 3.0 15.0 0.00 0.06 0.06 51 1014.9
20260509204555 63 120 0.0 4.0 0.00 0.06 0.06 52 1014.7
20260509203025 63 15 2.0 7.0 0.00 0.06 0.06 56 1014.6
20260509201526 63 29 0.0 0.0 0.00 0.06 0.06 58 1014.5
20260509200015 61 281 0.0 6.0 0.00 0.06 0.06 64 1014.5
20260509194514 60 262 2.0 8.0 0.00 0.06 0.06 66 1014.6
20260509193012 60 8 0.0 10.0 0.00 0.06 0.06 69 1014.8
20260509191509 58 135 0.0 2.0 0.02 0.06 0.06 72 1014.9
20260509190006 57 53 0.0 7.0 0.02 0.06 0.06 77 1014.9
20260509184511 56 120 0.0 2.0 0.02 0.06 0.06 77 1014.9
20260509183003 55 268 0.0 0.0 0.02 0.06 0.06 82 1014.8
20260509181502 56 143 0.0 10.0 0.00 0.04 0.04 76 1014.9
20260509180058 57 325 0.0 0.0 0.00 0.04 0.04 73 1014.8
20260509174600 56 240 0.0 0.0 0.00 0.04 0.04 75 1014.7
20260509173118 55 289 0.0 0.0 0.01 0.04 0.04 79 1014.6
20260509171554 54 224 0.0 0.0 0.01 0.04 0.04 81 1014.5
20260509170057 54 105 2.0 8.0 0.01 0.04 0.04 81 1014.5
20260509164558 54 50 0.0 0.0 0.02 0.04 0.04 83 1014.4
20260509163051 54 172 0.0 0.0 0.01 0.03 0.03 84 1014.4
20260509161548 52 202 0.0 0.0 0.01 0.03 0.03 86 1014.4
20260509160047 52 63 0.0 0.0 0.02 0.03 0.03 87 1014.3
20260509154543 52 345 0.0 0.0 0.01 0.02 0.02 87 1014.3
20260509153042 52 0.0 0.0 0.01 0.02 0.02 87 1014.1
20260509151553 51 319 0.0 0.0 0.01 0.02 0.02 87 1014.0
20260509150044 51 0.0 0.0 0.01 0.01 0.01 86 1014.0
20260509144534 51 311 0.0 0.0 0.01 0.01 0.01 84 1013.8
20260509143032 51 87 0.0 0.0 0.01 0.01 0.01 83 1013.6
20260509141530 50 315 0.0 0.0 0.01 0.01 0.01 83 1013.5
20260509134557 0 0.0 0.0 0.00 0.00 0.00 1013.2
20260509133049 0 0.0 0.0 0.00 0.00 0.00 1013.1
20260509131557 0 0.0 0.0 0.00 0.00 0.00 1013.0
20260509124540 0 0.0 0.0 0.00 0.00 0.00 1012.3
20260509123051 51 190 0.0 1.0 0.00 0.00 0.00 66 1012.1
20260509121529 51 0.0 1.0 0.00 0.00 0.00 69 1011.8
20260509120031 51 62 0.0 0.0 0.00 0.00 0.00 69 1011.6
20260509114524 51 268 0.0 0.0 0.00 0.00 0.00 69 1011.5
20260509113020 51 345 0.0 0.0 0.00 0.00 0.00 67 1011.2
20260509111516 52 304 0.0 0.0 0.00 0.00 0.00 67 1011.0